User: anonymous   Login
Location: *
(46.1866°S, 178.5290°W)
Time: 11:47:42
(UTC+00:00)
Language:

deb Agena D - Orbit

View from above orbital plane
View from above orbital plane
View from above satellite
View from above satellite

Ground track
Ground track

The orbit data is extracted from the following two-line orbital elements,

1 04851U 70025EF  21339.95291383  .00011696  00000-0  13475-2 0  9995
2 04851  99.8583 235.5240 0006086  59.6512 300.5298 14.85912490639830
Epoch (UTC): 05 December 2021 22:52:11
Eccentricity: 0.0006086
inclination: 99.8583°
perigee height: 606 km
apogee height: 615 km
right ascension of ascending node: 235.5240°
argument of perigee: 59.6512°
revolutions per day: 14.85912490
mean anomaly at epoch: 300.5298°
orbit number at epoch: 63983

The dashed part of the orbit path shows where the satellite is in the earth's shadow,  

DLR